BSAT-3C (JCSAT-110R)

Last updated on Jan. 27, 2020, 4:38 a.m. UTC

1 37776U 11041B   20026.78243816 -.00000356  00000-0  00000+0 0  9990
2 37776   0.0327 292.7316 0000471 126.4604  97.9455  1.00271424 31126
UTC
Height (km)
Latitude
Longitude
Inclination
Orbital Period
UTC large
Height (km)
Speed (km/s)
/
Latitude / Longitude
Inclination (degrees)
Orbital Period (minutes)
Azimuth
Elevation
Range (km)
Doppler Factor
iOS Compass Heading
iOS Angle

Next 30 passes for location: Hong Kong

Rise time Rise Azimuth (degrees) Set time Set Azimuth (degrees) Duration Max altitude (degrees)

No matching passes for this satellites